Weather Roundup
Issued by NWS

Home | Current Version | Previous Version | Text Only | Print | Product List | Glossary On
Versions: 1 2 3 4 5 6 7 8 9 10 11 12 13 14 15 16 17 18 19 20 21 22 23 24 25 26 27 28 29 30 31 32 33 34 35 36 37 38 39 40 41 42 43 44 45 46 47 48 49 50
000
NZUS93 KARX 311610
HRRWXR

CURRENT HOURLY OBSERVATIONS ACROSS
MUCH OF THE UPPER MISSISSIPPI VALLEY
NATIONAL WEATHER SERVICE LA CROSSE WI
1100 AM CDT WED AUG 31 2016


...SOUTHEAST MINNESOTA...


CITY           SKY/WX    TMP DP  RH WIND       PRES   REMARKS
ROCHESTER      SUNNY     73  54  51 N8        30.22R
ROCHESTER/MAYO FAIR      70  53  54 NW5       30.21S
WINONA         SUNNY     70  57  64 N5        30.19S
AUSTIN         SUNNY     72  55  56 N6        30.21S
ALBERT LEA     SUNNY     72  55  56 N3        30.22R
DODGE CENTER   SUNNY     72  55  56 N6        30.22R
PRESTON        SUNNY     69  54  57 N8        30.21R
OWATONNA       SUNNY     72  54  53 NW6       30.22R
FARIBAULT      SUNNY     72  55  56 N5        30.22S
$$

...ELSEWHERE IN MINNESOTA...


CITY           SKY/WX    TMP DP  RH WIND       PRES   REMARKS
MINNEAPOLIS    MOSUNNY   73  52  47 N8        30.22S
INTNL FALLS    MOSUNNY   66  55  67 N8        30.25R
DULUTH         SUNNY     70  50  49 NW8       30.22S
RED WING       SUNNY     73  54  49 N7        30.19S
REDWOOD FALLS  SUNNY     71  53  52 CALM      30.23S
MANKATO        SUNNY     71  56  58 N7        30.23R
WORTHINGTON    SUNNY     72  57  59 N5        30.26R
FAIRMONT       SUNNY     71  61  70 VRB5      30.23S
$$

...SOUTHWEST WISCONSIN...


CITY           SKY/WX    TMP DP  RH WIND       PRES   REMARKS
LA CROSSE      SUNNY     71  59  65 NW8       30.17S
PRAIRIE DU CHI SUNNY     73  52  48 N5        30.16S
BOSCOBEL       SUNNY     73  57  57 MISG      30.16S
LONE ROCK      SUNNY     73  54  51 VRB6      30.16R
PLATTEVILLE    PTSUNNY   71  66  83 N13       30.16S
FORT MC COY    SUNNY     69  56  64 N3        30.18S
CAMP DOUGLAS   MOSUNNY   72  55  56 N6        30.17R
MAUSTON-NEW LI SUNNY     69  55  60 NW5       30.17R
VIROQUA        FAIR      70  55  58 NE5       30.19R
WIS DELLS      SUNNY     70  52  52 NE5       30.16S
$$

...ELSEWHERE IN WISCONSIN...


CITY           SKY/WX    TMP DP  RH WIND       PRES   REMARKS
MILWAUKEE      MOSUNNY   72  59  63 NE16G22   30.11R
MADISON        MOSUNNY   71  56  58 NE10      30.14R
GREEN BAY      SUNNY     70  59  68 NW9       30.14S
EAU CLAIRE     NOT AVBL
BLACK RVR FLS  FAIR      70  55  58 NW5       30.18S
MEDFORD        SUNNY     68  52  55 N9        30.20R
WAUSAU         SUNNY     70  52  52 VRB7      30.16S
WIS RAPIDS     SUNNY     72  57  59 VRB5      30.18S
MARSHFIELD     SUNNY     72  51  47 N9        30.17S
RICE LAKE      SUNNY     70  55  57 N3        30.22S
$$

...NORTHEAST IOWA...


CITY           SKY/WX    TMP DP  RH WIND       PRES   REMARKS
WATERLOO       SUNNY     74  55  51 NE10      30.17R
DUBUQUE        CLOUDY    66  62  87 E8        30.16R
DECORAH        SUNNY     72  57  60 VRB6      30.18S
MASON CITY     SUNNY     72  57  59 N6        30.22S
CHARLES CITY   SUNNY     72  57  60 VRB6      30.21R
OELWEIN        SUNNY     72  59  64 N8        30.19R
$$

...ELSEWHERE IN IOWA...


CITY           SKY/WX    TMP DP  RH WIND       PRES   REMARKS
DES MOINES     MOSUNNY   77  58  51 NE9       30.17S
IOWA CITY      MOSUNNY   75  62  64 N10       30.14S
FORT DODGE     SUNNY     72  61  68 N6        30.22S
MARSHALLTOWN   SUNNY     73  60  63 NE8       30.18R
CEDAR RAPIDS   MOSUNNY   74  60  61 NW9       30.14R
$$

...NORTHERN ILLINOIS...


CITY           SKY/WX    TMP DP  RH WIND       PRES   REMARKS
CHICAGO-OHARE  PTSUNNY   75  59  57 N16       30.07R
CHICAGO-MIDWAY PTSUNNY   76  60  57 N10       30.06S
MOLINE         CLOUDY    74  65  73 N6        30.11R
ROCKFORD       CLOUDY    75  62  64 N10       30.12R
PEORIA         MOSUNNY   78  71  79 NW3       30.07S
$$

NOTE: "FAIR" INDICATES FEW OR NO CLOUDS BELOW 12,000 FEET WITH NO
SIGNIFICANT WEATHER AND/OR OBSTRUCTIONS TO VISIBILITY. WIND
SPEEDS ARE IN MILES-PER-HOUR.




USA.gov is the U.S. government's official web portal to all federal, state and local government web resources and services.